Skip Navigation Links
NOAA logo - Click to go to the NOAA homepage
NOAA's National Weather Service
Alaska Aviation Weather Unit
  NWS logo - Click to go to the NWS homepage
Left Navbar Graphic     00 AKDT = 08 GMT

   
NOAA is celebrating 200 years of science, service, and stewardship. Visit the NOAA 200th celebration Web site to learn more.
USA.gov is the U.S. Government's official Web portal to all Federal, state and local government Web resources and services.
Facebook
NWS on Facebook

Important Change Regarding the AAWU Web Presence

 

Over the last several months, the AAWU has been working to navigate its webpages to a nationally supported server. Security, as well as other needs, have necessitated the change.  We have been given an extension for the site changeover while we diligently work at addressing feedback received. As of July 14, 2017, aawu.arh.noaa.gov will be discontinued. The new AAWU web address is weather.gov/aawu. It is now live and will run in-parallel with the old site until it is discontinued on July 14, 2017. Please continue to send any feedback or questions regarding the new webpages to nws.ar.aawu.webauthors@noaa.gov.  Thank you for your patience during this time of transition.
AAWU Home :: Display TAF Add Bookmark
TAF PAWG 240526Z 2406/2506  09010KT 6SM -RA BR FEW003 OVC035
     FM240800 11010KT 4SM -RA BR SCT005 OVC020
     FM241200 12008KT 4SM -SHRA BR SCT003 OVC010
     FM241700 VRB05KT 6SM BR VCSH OVC015
     FM242000 VRB05KT P6SM VCSH OVC025
      AMD LTD TO CLD VIS AND WIND 2406/2415=

2587
FTAK31 PAJN 240526
TAFAKW
TAF

METAR PAWG 240256Z 08012G16KT 6SM -RA BR FEW001 FEW008 OVC038 13/12 A2981= METAR PAWG 240356Z 07009KT 6SM -RA BR FEW028 BKN035 OVC050 13/12 A2979= METAR PAWG 240456Z 07006KT 6SM -RA BR FEW028 BKN035 OVC050 13/12 A2979= METAR PAWG 240556Z 31003KT 6SM -RA BR FEW028 BKN035 OVC050 13/12 A2979= SPECI PAWG 240729Z AUTO 21003KT 4SM -RA BR BKN030 OVC038 13/13 A2979 RMK AO2 P0002 TSNO= METAR PAWG 240756Z AUTO 00000KT 4SM -RA BR BKN026 OVC037 13/13 A2980=
 Alaska TAF Map

NOAA's National Weather Service
Alaska Aviation Weather Unit
6930 Sand Lake Road
Anchorage, AK 99502-1845
Disclaimer
Credits
Glossary
Privacy Policy
About Us
Career Opportunities
Contact AAWU Internet Services Site last modified: April, 17th 2012